{"data":{"norad_id":59530,"epoch":"2026-05-24T23:40:06.391776Z","epoch_age_seconds":72152,"freshness":"FRESH","line1":"1 59530U 24073V   26144.98618509 -.00006530  00000+0 -22795-3 0  9994","line2":"2 59530  43.0016 247.1784 0001463 268.5307  91.5377 15.27580926117844","mean_motion":15.27580926,"eccentricity":0.0001463,"inclination_deg":43.0016,"raan_deg":247.1784,"arg_perigee_deg":268.5307,"mean_anomaly_deg":91.5377,"bstar":-0.00022795,"rev_number":11784,"period_min":94.266691570355,"perigee_km":482.04253214373,"apogee_km":484.05011438412,"semimajor_km":6861.1833232639,"source":"CELESTRAK","updated_at":"2026-05-25T13:38:18.977388Z"}}